Home   Weather   Helsinki   Past weeks
Flag for Finland

Past Weather in Helsinki, Finland — Yesterday and Last 2 Weeks

Now
50 °F

Passing clouds.


Feels Like: 48 °F
Forecast: 52 / 48 °F
Wind: 6 mph from East

Location: Helsinki-Vantaa

Current Time: May 25, 2019 at 12:24:52 am

Latest Report: May 24, 2019 at 11:50 pm


Visibility: 4 mi

Pressure: 29.74 "Hg

Humidity: 94%

Dew Point: 48 °F

Location of HelsinkiLocation

Past Weather in Helsinki — Graph

°F

Helsinki Temperature Yesterday

Maximum temperature yesterday: 52 °F (at 6:20 pm)
Minimum temperature yesterday: 46 °F (at 9:50 am)
Average temperature yesterday: 49 °F

High & Low Weather Summary for the Past Weeks

 TemperatureHumidityPressure
High79 °F (May 21, 3:50 pm)100% (May 10, 4:20 pm)30.45 "Hg (May 10, 4:20 pm)
Low34 °F (May 15, 4:50 am)23% (May 18, 5:20 pm)29.71 "Hg (May 11, 8:50 pm)
Average55 °F65%30.07 "Hg
* Reported May 9 10:20 pm — May 24 10:50 pm, Helsinki. Weather by CustomWeather, © 2019

Note: Actual official high and low records may vary slightly from our data, if they occured in-between our weather recording intervals... More about our weather records

Advertising

Helsinki Weather History for the Previous 24 Hours

Scroll right to see more
 ConditionsComfort  
Time TempWeatherWind HumidityBarometerVisibility
10:50 pm
Fri, May 24
50 °FPassing clouds.5 mph94%29.77 "Hg6 mi
10:20 pm50 °FPassing clouds.6 mph88%29.77 "HgN/A
9:50 pm50 °FPartly sunny.7 mph88%29.77 "HgN/A
8:50 pm50 °FPartly sunny.5 mph82%29.77 "HgN/A
8:20 pm50 °FPartly sunny.7 mph82%29.80 "HgN/A
7:50 pm50 °FPartly sunny.7 mph82%29.80 "HgN/A
7:20 pm50 °FPartly sunny.8 mph82%29.80 "HgN/A
6:50 pm50 °FPartly sunny.8 mph82%29.80 "HgN/A
6:20 pm52 °FBroken clouds.9 mph77%29.80 "HgN/A
5:50 pm50 °FPartly sunny.9 mph76%29.80 "HgN/A
5:20 pm50 °FPartly sunny.12 mph82%29.83 "HgN/A
4:50 pm50 °FPartly sunny.12 mph76%29.83 "HgN/A
4:20 pm50 °FPartly sunny.8 mph76%29.83 "HgN/A
3:50 pm50 °FPartly sunny.10 mph76%29.83 "HgN/A
3:20 pm50 °FPartly sunny.8 mph76%29.83 "HgN/A
2:50 pm50 °FPartly sunny.10 mph76%29.83 "HgN/A
2:20 pm50 °FPartly sunny.13 mph76%29.83 "HgN/A
1:50 pm50 °FPartly sunny.12 mph82%29.83 "HgN/A
1:20 pm50 °FPartly sunny.12 mph82%29.83 "HgN/A
12:50 pm50 °FPartly sunny.13 mph82%29.83 "HgN/A
12:20 pm50 °FPartly sunny.9 mph82%29.83 "HgN/A
11:50 am48 °FPartly sunny.14 mph82%29.86 "HgN/A
11:20 am48 °FPartly sunny.10 mph87%29.86 "HgN/A
10:50 am48 °FPartly sunny.10 mph87%29.86 "HgN/A
10:20 am46 °FPartly sunny.9 mph87%29.86 "HgN/A
9:50 am46 °FPartly sunny.10 mph87%29.86 "HgN/A
8:50 am48 °FScattered showers. Partly sunny.10 mph76%29.86 "HgN/A
8:20 am48 °FPartly sunny.9 mph76%29.86 "HgN/A
7:50 am48 °FPartly sunny.10 mph76%29.86 "HgN/A
7:20 am48 °FBroken clouds.10 mph76%29.86 "HgN/A
6:50 am48 °FPartly sunny.8 mph76%29.86 "HgN/A
6:20 am48 °FSunny.9 mph76%29.86 "Hg10 mi
5:50 am48 °FLight rain. Partly sunny.9 mph76%29.86 "HgN/A
5:20 am48 °FLight rain. Clear.10 mph76%29.89 "HgN/A
4:50 am48 °FLight rain. Clear.12 mph71%29.89 "HgN/A
4:20 am48 °FClear.9 mph66%29.89 "Hg10 mi
3:50 am48 °FClear.9 mph62%29.89 "Hg10 mi
3:20 am48 °FClear.9 mph62%29.89 "Hg10 mi
2:50 am48 °FClear.9 mph66%29.89 "Hg10 mi
2:20 am50 °FClear.8 mph62%29.89 "Hg10 mi
1:50 am50 °FClear.8 mph62%29.89 "Hg10 mi
1:20 am50 °FClear.9 mph62%29.89 "Hg10 mi
12:50 am50 °FClear.8 mph62%29.89 "Hg10 mi
12:20 am50 °FClear.5 mph62%29.92 "Hg10 mi
Weather by CustomWeather, © 2019

See weather overview